Terug naar catalogus

STARLINK-3778

ActiefCommunicatieVLEO
NORAD 52276·PAYLOAD·🇺🇸 United States

Gelanceerd Apr 21, 2022 vanaf Cape Canaveral Space Force Station

Loading…

Volgende Passages (komende 24 uur)

TLE

VersSource: CelesTrak SupGP

Epoch: Sep 15, 2026, 02:34 UTC

1 52276C 22041R   26258.10743056  .00044983  00000+0  13651-2 0  2583
2 52276  53.1600 332.9369 0001103  87.4924  20.8254 15.33524398    18

Volg STARLINK-3778 in realtime met AllMySat

Download on the App Store